When you browse on this site, cookies collect data to enhance your experience and personalize the content and advertising you see.
Visit our Privacy Policy to learn more. By continuing to use the site, you agree to this use of cookies and data.
  • In Hungary
  • List of Countries
  • For 7 days
  • Water Temperature
  • Weather Map
  • News
  • Weather Widgets
  • user-avatar
    Login

    Hourly Weather Voshod

    Today, 25 August, Sunday

    Time Temperature Precipitation Wind Pressure Humidity
    00:00 +15°C° 0 mm 1 mps 756 mmHg 79%
    01:00 +15°C° 0 mm 1 mps 756 mmHg 80%
    02:00 +15°C° 0 mm 1 mps 757 mmHg 80%
    03:00 +14°C° 0 mm 1 mps 757 mmHg 82%
    04:00 +14°C° 0 mm 1 mps 757 mmHg 84%
    05:00 +14°C° 0 mm 1 mps 757 mmHg 86%
    06:00 +16°C° 0 mm 1 mps 757 mmHg 80%
    07:00 +19°C° 0 mm 1 mps 757 mmHg 75%
    08:00 +20°C° 0 mm 1 mps 757 mmHg 69%
    09:00 +22°C° 0 mm 1 mps 757 mmHg 65%
    10:00 +23°C° 0 mm 2 mps 757 mmHg 61%
    11:00 +25°C° 0 mm 2 mps 757 mmHg 57%
    12:00 +25°C° 0 mm 2 mps 757 mmHg 56%
    13:00 +26°C° 0 mm 2 mps 757 mmHg 55%
    14:00 +26°C° 0 mm 2 mps 757 mmHg 54%
    15:00 +26°C° 0 mm 2 mps 757 mmHg 57%
    16:00 +25°C° 0 mm 2 mps 757 mmHg 60%
    17:00 +25°C° 0 mm 2 mps 757 mmHg 62%
    18:00 +23°C° 0 mm 2 mps 757 mmHg 68%
    19:00 +20°C° 0 mm 2 mps 757 mmHg 74%
    20:00 +19°C° 0 mm 2 mps 757 mmHg 80%
    21:00 +18°C° 0 mm 2 mps 757 mmHg 82%
    22:00 +17°C° 0 mm 2 mps 757 mmHg 84%
    23:00 +16°C° 0 mm 2 mps 757 mmHg 86%

    Tomorrow, 26 August, Monday

    Time Temperature Precipitation Wind Pressure Humidity
    00:00 +16°C° 0 mm 2 mps 758 mmHg 87%
    01:00 +15°C° 0 mm 2 mps 758 mmHg 88%
    02:00 +15°C° 0 mm 2 mps 758 mmHg 89%
    03:00 +15°C° 0 mm 2 mps 758 mmHg 89%
    04:00 +14°C° 0 mm 2 mps 758 mmHg 89%
    05:00 +14°C° 0 mm 1 mps 758 mmHg 89%
    06:00 +15°C° 0 mm 2 mps 758 mmHg 83%
    07:00 +17°C° 0 mm 2 mps 758 mmHg 77%
    08:00 +19°C° 0 mm 2 mps 758 mmHg 72%
    09:00 +20°C° 0 mm 2 mps 758 mmHg 67%
    10:00 +23°C° 0 mm 2 mps 758 mmHg 62%
    11:00 +24°C° 0 mm 2 mps 758 mmHg 58%
    12:00 +25°C° 0 mm 1 mps 758 mmHg 56%
    13:00 +26°C° 0 mm 1 mps 757 mmHg 54%
    14:00 +26°C° 0 mm 1 mps 757 mmHg 52%
    15:00 +26°C° 0 mm 1 mps 757 mmHg 53%
    16:00 +26°C° 0 mm 1 mps 756 mmHg 55%
    17:00 +25°C° 0 mm 1 mps 756 mmHg 56%
    18:00 +23°C° 0 mm 1 mps 756 mmHg 62%
    19:00 +21°C° 0 mm 1 mps 756 mmHg 67%
    20:00 +19°C° 0 mm 1 mps 756 mmHg 73%
    21:00 +19°C° 0 mm 1 mps 756 mmHg 75%
    22:00 +18°C° 0 mm 1 mps 756 mmHg 77%
    23:00 +18°C° 0 mm 1 mps 756 mmHg 80%

    Day after tomorrow, 27 August, Tuesday

    Time Temperature Precipitation Wind Pressure Humidity
    00:00 +15°C° 0 mm 0 mps 756 mmHg 81%
    01:00 +15°C° 0 mm 0 mps 756 mmHg 83%
    02:00 +14°C° 0 mm 0 mps 756 mmHg 84%
    03:00 +14°C° 0 mm 0 mps 756 mmHg 85%
    04:00 +15°C° 0 mm 1 mps 756 mmHg 86%
    05:00 +15°C° 0 mm 1 mps 755 mmHg 86%
    06:00 +16°C° 0 mm 1 mps 756 mmHg 81%
    07:00 +19°C° 0 mm 1 mps 756 mmHg 76%
    08:00 +20°C° 0 mm 2 mps 756 mmHg 71%
    09:00 +21°C° 0 mm 2 mps 756 mmHg 67%
    10:00 +23°C° 0 mm 2 mps 756 mmHg 62%
    11:00 +25°C° 0 mm 2 mps 756 mmHg 58%
    12:00 +26°C° 0 mm 2 mps 755 mmHg 57%
    13:00 +26°C° 0 mm 3 mps 755 mmHg 55%
    14:00 +27°C° 0 mm 3 mps 755 mmHg 54%
    15:00 +26°C° 0 mm 3 mps 755 mmHg 58%
    16:00 +26°C° 0 mm 3 mps 754 mmHg 62%
    17:00 +26°C° 0 mm 2 mps 754 mmHg 66%
    18:00 +24°C° 0 mm 2 mps 754 mmHg 72%
    19:00 +21°C° 0 mm 2 mps 754 mmHg 78%
    20:00 +19°C° 0 mm 2 mps 754 mmHg 84%
    21:00 +18°C° 0 mm 2 mps 755 mmHg 86%
    22:00 +18°C° 0 mm 2 mps 755 mmHg 88%
    23:00 +17°C° 0 mm 2 mps 755 mmHg 90%

    28 August, Wednesday

    Time Temperature Precipitation Wind Pressure Humidity
    00:00 +17°C° 0 mm 2 mps 755 mmHg 90%
    01:00 +16°C° 0 mm 2 mps 755 mmHg 91%
    02:00 +16°C° 0 mm 2 mps 755 mmHg 92%
    03:00 +15°C° 0 mm 2 mps 755 mmHg 92%
    04:00 +15°C° 0 mm 2 mps 755 mmHg 93%
    05:00 +15°C° 0 mm 2 mps 755 mmHg 93%
    06:00 +16°C° 0 mm 2 mps 755 mmHg 86%
    07:00 +17°C° 0 mm 3 mps 755 mmHg 79%
    08:00 +18°C° 0 mm 3 mps 756 mmHg 72%
    09:00 +20°C° 0 mm 3 mps 756 mmHg 66%
    10:00 +21°C° 0 mm 3 mps 756 mmHg 59%
    11:00 +22°C° 0 mm 4 mps 756 mmHg 52%
    12:00 +23°C° 0 mm 4 mps 755 mmHg 51%
    13:00 +23°C° 0 mm 4 mps 755 mmHg 50%
    14:00 +23°C° 0 mm 4 mps 755 mmHg 49%
    15:00 +23°C° 0 mm 4 mps 755 mmHg 52%
    16:00 +22°C° 0 mm 3 mps 755 mmHg 56%
    17:00 +22°C° 0 mm 3 mps 755 mmHg 59%
    18:00 +20°C° 0 mm 3 mps 755 mmHg 64%
    19:00 +18°C° 0 mm 3 mps 755 mmHg 69%
    20:00 +16°C° 0 mm 3 mps 755 mmHg 74%
    21:00 +14°C° 0 mm 3 mps 755 mmHg 73%
    22:00 +13°C° 0 mm 3 mps 756 mmHg 72%
    23:00 +12°C° 0 mm 3 mps 756 mmHg 71%

    29 August, Thursday

    Time Temperature Precipitation Wind Pressure Humidity
    00:00 +11°C° 0 mm 3 mps 756 mmHg 72%
    01:00 +10°C° 0 mm 3 mps 756 mmHg 73%
    02:00 +10°C° 0 mm 3 mps 756 mmHg 74%
    03:00 +9°C° 0 mm 3 mps 756 mmHg 75%
    04:00 +9°C° 0 mm 3 mps 756 mmHg 77%
    05:00 +8°C° 0 mm 3 mps 757 mmHg 78%
    06:00 +10°C° 0 mm 3 mps 757 mmHg 74%
    07:00 +11°C° 0 mm 3 mps 757 mmHg 70%
    08:00 +13°C° 0 mm 3 mps 757 mmHg 66%
    09:00 +14°C° 0 mm 3 mps 757 mmHg 61%
    10:00 +17°C° 0 mm 4 mps 757 mmHg 55%
    11:00 +18°C° 0 mm 4 mps 757 mmHg 49%
    12:00 +19°C° 0 mm 4 mps 757 mmHg 48%
    13:00 +20°C° 0 mm 4 mps 756 mmHg 47%
    14:00 +20°C° 0 mm 4 mps 756 mmHg 45%
    15:00 +20°C° 0 mm 3 mps 756 mmHg 48%
    16:00 +20°C° 0 mm 3 mps 755 mmHg 51%
    17:00 +19°C° 0 mm 3 mps 755 mmHg 54%
    18:00 +18°C° 0 mm 3 mps 755 mmHg 59%
    19:00 +16°C° 0 mm 3 mps 755 mmHg 63%
    20:00 +13°C° 0 mm 3 mps 755 mmHg 68%
    21:00 +12°C° 0 mm 3 mps 755 mmHg 70%
    22:00 +12°C° 0 mm 3 mps 756 mmHg 72%
    23:00 +11°C° 0 mm 3 mps 756 mmHg 74%

    30 August, Friday

    Time Temperature Precipitation Wind Pressure Humidity
    00:00 +10°C° 0 mm 3 mps 756 mmHg 75%
    01:00 +10°C° 0 mm 2 mps 756 mmHg 77%
    02:00 +10°C° 0 mm 2 mps 756 mmHg 78%
    03:00 +9°C° 0 mm 2 mps 756 mmHg 78%
    04:00 +9°C° 0 mm 2 mps 756 mmHg 79%
    05:00 +8°C° 0 mm 2 mps 756 mmHg 80%
    06:00 +10°C° 0 mm 2 mps 756 mmHg 74%
    07:00 +12°C° 0 mm 3 mps 756 mmHg 68%
    08:00 +14°C° 0 mm 3 mps 756 mmHg 63%
    09:00 +16°C° 0 mm 3 mps 756 mmHg 57%
    10:00 +18°C° 0 mm 3 mps 756 mmHg 51%
    11:00 +20°C° 0 mm 3 mps 756 mmHg 45%
    12:00 +20°C° 0 mm 3 mps 756 mmHg 44%
    13:00 +21°C° 0 mm 3 mps 755 mmHg 42%
    14:00 +22°C° 0 mm 3 mps 755 mmHg 41%
    15:00 +21°C° 0 mm 3 mps 755 mmHg 44%
    16:00 +21°C° 0 mm 2 mps 755 mmHg 47%
    17:00 +21°C° 0 mm 2 mps 754 mmHg 50%
    18:00 +19°C° 0 mm 2 mps 754 mmHg 53%
    19:00 +17°C° 0 mm 2 mps 754 mmHg 56%
    20:00 +15°C° 0 mm 2 mps 754 mmHg 59%
    21:00 +14°C° 0 mm 2 mps 754 mmHg 60%
    22:00 +14°C° 0 mm 2 mps 754 mmHg 61%
    23:00 +12°C° 0 mm 3 mps 754 mmHg 63%
    Show more